Location: Unspecified
(0.0000°N, 0.0000°E)
Time: 02:36:23
(UTC+00:00)

SR - All Passes

Search period start: 01 November 2014 00:00
Search period end: 11 November 2014 00:00
Orbit: 576 x 888 km, 66.7° (Epoch: 31 October)

Date Brightness Start Highest point End Pass type
(mag) Time Alt. Az. Time Alt. Az. Time Alt. Az.
01 Nov - 09:19:18 10° SSE 09:23:14 20° ESE 09:27:20 10° ENE daylight
01 Nov - 11:00:16 10° SW 11:05:08 31° WNW 11:10:14 10° N daylight
01 Nov - 21:46:35 10° N 21:50:54 40° ENE 21:54:58 10° SE night (unlit)
02 Nov - 10:11:17 10° SSW 10:16:48 73° WNW 10:22:39 10° NNE daylight
02 Nov - 20:59:58 10° NNE 21:02:32 15° ENE 21:05:02 10° ESE night (unlit)
02 Nov - 22:40:55 10° WNW 22:44:25 22° WSW 22:47:47 10° SSW night (unlit)
03 Nov - 09:23:14 10° S 09:28:32 48° ESE 09:34:08 10° NE daylight
03 Nov - 11:08:07 10° W 11:10:37 13° WNW 11:13:09 10° NW daylight
03 Nov - 21:51:41 10° NNW 21:56:12 65° WSW 22:00:27 10° SSE night (unlit)
04 Nov - 08:36:16 10° SSE 08:40:18 21° ESE 08:44:28 10° ENE daylight
04 Nov - 10:17:20 10° SW 10:22:12 31° WNW 10:27:17 10° N daylight
04 Nov - 21:03:37 10° N 21:07:56 41° ENE 21:11:59 10° SE night (unlit)
05 Nov - 09:28:20 10° SSW 09:33:52 72° WNW 09:39:43 10° NNE daylight
05 Nov - 20:16:57 10° NNE 20:19:34 15° ENE 20:22:05 10° ESE night (unlit)
05 Nov - 21:58:00 10° WNW 22:01:26 22° WSW 22:04:44 10° SSW night (unlit)
06 Nov - 08:40:15 10° S 08:45:35 49° ESE 08:51:13 10° NE daylight
06 Nov - 10:25:14 10° W 10:27:40 13° WNW 10:30:08 10° NW daylight
06 Nov - 21:08:44 10° NNW 21:13:13 63° WSW 21:17:26 10° S night (unlit)
07 Nov - 07:53:14 10° SSE 07:57:21 21° ESE 08:01:36 10° ENE daylight
07 Nov - 09:34:23 10° SW 09:39:15 30° WNW 09:44:20 10° N daylight
07 Nov - 20:20:38 10° N 20:24:56 42° ENE 20:29:00 10° SE night (unlit)
08 Nov - 08:45:21 10° SSW 08:50:55 70° WNW 08:56:46 10° NNE daylight
08 Nov - 19:33:56 10° NNE 19:36:34 15° ENE 19:39:08 10° ESE night (unlit)
08 Nov - 21:15:05 10° WNW 21:18:26 21° WSW 21:21:41 10° SSW night (unlit)
09 Nov - 07:57:15 10° S 08:02:38 50° ESE 08:08:17 10° NE daylight
09 Nov - 09:42:22 10° W 09:44:42 13° WNW 09:47:05 10° NW daylight
09 Nov - 20:25:46 10° NNW 20:30:13 62° WSW 20:34:25 10° S night (unlit)
10 Nov - 07:10:12 10° SSE 07:14:22 22° ESE 07:18:42 10° ENE daylight
10 Nov - 08:51:26 10° SW 08:56:18 30° WNW 09:01:21 10° N daylight
10 Nov - 19:37:39 10° N 19:41:56 43° ENE 19:45:59 10° SE night (unlit)
